[Date Prev][Date Next][Thread Prev][Thread Next] - [Date Index][Thread Index][Author Index]
2 Line ISS Keps 6-20
- Subject: [sarex] 2 Line ISS Keps 6-20
- From: "Dave Larsen PhD" <doc@xxxxxxxxxxx>
- Date: Mon, 19 Jun 2006 21:23:42 -0700
ISS
1 25544U 98067A 06171.16142631 .00006904 00000-0 47927-4 0 1454
2 25544 051.6284 172.1575 0010009 345.0017 104.4136 15.75784570433633
----
Via the sarex mailing list at AMSAT.ORG courtesy of AMSAT-NA.
To unsubscribe, send "unsubscribe sarex" to Majordomo@amsat.org
AMSAT Home